Home   Weather   Plattsburgh   Past weeks
Flag for USA

Past Weather in Plattsburgh, New York, USA — Yesterday and Last 2 Weeks

Now
52 °F

Clear.


Feels Like: 47 °F
Forecast: 58 / 44 °F
Wind: 15 mph from Southeast

Location: Plattsburgh International Airport

Current Time: Oct 22, 2019 at 7:39:45 am

Latest Report: Oct 22, 2019 at 6:53 am


Visibility: 10 mi

Pressure: 30.00 "Hg

Humidity: 83%

Dew Point: 47 °F

Location of PlattsburghLocation

Past Weather in Plattsburgh — Graph

°F

Plattsburgh Temperature Yesterday

Maximum temperature yesterday: 60 °F (at 3:53 pm)
Minimum temperature yesterday: 32 °F (at 7:35 am)
Average temperature yesterday: 42 °F

High & Low Weather Summary for the Past Weeks

 TemperatureHumidityPressure
High68 °F (Oct 11, 2:53 pm)97% (Oct 7, 5:53 am)30.45 "Hg (Oct 7, 5:53 am)
Low30 °F (Oct 20, 2:53 am)28% (Oct 11, 2:53 pm)29.07 "Hg (Oct 17, 10:22 am)
Average48 °F77%30.00 "Hg
* Reported Oct 7 5:40 am — Oct 22 5:53 am, Plattsburgh. Weather by CustomWeather, © 2019

Note: Actual official high and low records may vary slightly from our data, if they occured in-between our weather recording intervals... More about our weather records

Advertising

Plattsburgh Weather History for the Previous 24 Hours

Scroll right to see more
 ConditionsComfort  
Time TempWeatherWind HumidityBarometerVisibility
5:53 am
Tue, Oct 22
51 °FClear.6 mph83%30.03 "Hg10 mi
4:53 am50 °FClear.7 mph89%30.02 "Hg10 mi
3:53 am45 °FClear.5 mph93%30.04 "Hg10 mi
2:53 am39 °FClear.No wind96%30.07 "Hg10 mi
2:35 am39 °FPassing clouds.3 mph96%30.08 "Hg10 mi
1:53 am39 °FClear.No wind93%30.09 "Hg9 mi
12:53 am39 °FClear.3 mph96%30.10 "Hg8 mi
11:53 pm
Mon, Oct 21
41 °FClear.No wind93%30.11 "Hg10 mi
10:53 pm40 °FClear.No wind93%30.12 "Hg8 mi
9:53 pm42 °FClear.No wind92%30.13 "Hg10 mi
8:53 pm46 °FClear.3 mph86%30.14 "Hg10 mi
7:53 pm45 °FClear.No wind90%30.14 "Hg10 mi
6:53 pm49 °FClear.No wind86%30.15 "Hg10 mi
5:53 pm53 °FSunny.No wind72%30.14 "Hg10 mi
4:53 pm59 °FSunny.3 mph58%30.14 "Hg10 mi
3:53 pm60 °FSunny.7 mph53%30.12 "Hg10 mi
10:53 am52 °FSunny.No wind77%30.17 "Hg10 mi
9:53 am48 °FSunny.No wind83%30.16 "Hg10 mi
8:53 am40 °FSunny.No wind93%30.15 "Hg10 mi
7:53 am33 °FSunny.No wind96%30.14 "Hg8 mi
7:35 am32 °FIce fog.No wind96%30.13 "Hg1 mi
Weather by CustomWeather, © 2019

See weather overview